Regional Weather Roundup
Issued by NWS

Home | Current Version | Previous Version | Text Only | Print | Product List | Glossary On
Versions: 1 2 3 4 5 6 7 8 9 10 11 12 13 14 15 16 17 18 19 20 21 22 23 24 25 26 27 28 29 30 31 32 33 34 35 36 37 38 39 40 41 42 43 44 45 46 47 48 49 50
000
ASUS43 KLSX 261459
RWRMO

WEATHER SUMMARY FOR MISSOURI
NATIONAL WEATHER SERVICE SPRINGFIELD MO
1000 AM CDT SAT JUL 26 2014

NOTE: "FAIR" INDICATES FEW OR NO CLOUDS BELOW 12,000 FEET WITH NO
       SIGNIFICANT WEATHER AND/OR OBSTRUCTIONS TO VISIBILITY.
       CURRENT SKY AND/OR WEATHER CONDITIONS ARE NOT AVAILABLE FOR
       CHILLICOTHE AND FARMINGTON.

MOZ001>031-035>038-043-044-053-054-261600-
...NORTHERN AND WESTERN MISSOURI...

CITY           SKY/WX    TMP DP  RH WIND       PRES   REMARKS
KANSAS CTY INT CLOUDY    80  72  76 S13       29.84R
KANSAS C DTWN  CLOUDY    86  69  56 SW13      29.84R HX  90
LEE`S SUMMIT   PTSUNNY   82  71  69 SW10      29.87R
ST JOSEPH      CLOUDY    80  72  76 S10       29.81S
CHILLICOTHE      N/A     82  73  74 S8        29.82F
KIRKSVILLE     CLOUDY    81  74  79 SW9       29.84F

$$
MOZ066>068-077>081-088>096-101>105-261600-
...SOUTHWEST MISSOURI...

CITY           SKY/WX    TMP DP  RH WIND       PRES   REMARKS
SPRINGFIELD    SUNNY     85  70  60 SW18      29.97S
JOPLIN         SUNNY     86  70  58 SW18G29   29.95F HX  90

$$
MOZ032>034-039>042-045>050-055>058-069>072-261600-
...CENTRAL MISSOURI...

CITY           SKY/WX    TMP DP  RH WIND       PRES   REMARKS
COLUMBIA       PTSUNNY   85  73  67 SW13      29.89F HX  91
JEFFERSON CITY MOSUNNY   86  72  62 SW9       29.88S HX  92
ROLLA          MOSUNNY   82  71  69 SW18      29.91S
SEDALIA        SUNNY     86  71  60 SW20G29   29.88S HX  91
OSAGE BEACH    MOSUNNY   84  72  65 SW10G17   29.91S

$$
MOZ051-052-059>065-261600-
...EAST CENTRAL MISSOURI...

CITY           SKY/WX    TMP DP  RH WIND       PRES   REMARKS
ST LOUIS INTL  MOSUNNY   85  72  65 SW16      29.89F HX  91
SPIRIT OF STL  PTSUNNY   84  73  69 SW7       29.87F HX  90
ST CHARLES     SUNNY     83  72  69 SW10      29.86F

$$
MOZ072>076-082>087-097>100-106>115-261600-
...SOUTH CENTRAL AND SOUTHEAST MISSOURI...

CITY           SKY/WX    TMP DP  RH WIND       PRES   REMARKS
CAPE GIRARDEAU SUNNY     79  72  79 SW10      29.96F
FARMINGTON     PTSUNNY   81  72  74 S6        29.96F
POPLAR BLUFF   SUNNY     80  71  74 S10       29.96F
WEST PLAINS    SUNNY     83  71  67 W18       30.00F

$$


USA.gov is the U.S. government's official web portal to all federal, state and local government web resources and services.